EHI
0 1 1 1 1 2 5 5 4 6 10 11 8 8 7 6 5 7 12 19 24 24 21 16 12 10 9 8 6 5 4 5 5 6 6 5 5 4 4 4 3 2 2
1 0 0 0 0 2 5 7 7 7 8 8 8 8 9 7 5 7 10 16 22 24 24 20 15 12 10 9 7 7 6 6 5 5 4 4 4 3 4 4 5 5 5
2 1 0 0 0 3 8 12 12 9 7 6 7 8 8 7 6 6 9 13 17 22 24 24 20 16 14 12 11 9 8 8 6 4 3 2 3 3 3 5 7 8 8
3 2 1 0 2 6 10 12 12 10 7 6 6 6 7 6 5 6 9 12 15 18 22 23 21 20 19 18 15 12 10 9 7 4 2 1 1 2 2 3 6 7 8
3 3 1 2 5 8 8 7 8 9 8 6 5 5 5 5 6 6 7 10 14 19 22 21 20 20 22 22 20 18 14 11 9 7 4 3 2 1 1 1 2 3 5
3 3 2 3 5 6 5 5 8 9 7 5 4 4 4 5 6 6 6 7 11 18 23 24 22 21 22 24 25 24 20 15 13 11 7 5 4 2 1 0 0 1 1
4 3 2 2 3 4 7 9 8 7 5 4 4 4 5 5 5 5 6 6 8 11 19 25 28 26 24 24 25 26 24 20 18 15 11 8 6 5 3 2 2 2 1
6 5 3 2 2 5 10 13 11 7 5 4 4 4 4 4 4 4 5 6 6 7 11 20 27 28 27 24 21 22 23 22 19 17 14 10 8 8 6 5 4 3 2
12 10 8 6 5 7 12 15 14 10 7 6 5 4 3 4 4 3 3 4 5 6 7 12 17 24 27 26 22 21 22 21 17 16 15 12 11 10 8 6 5 4 3
18 17 15 14 12 12 14 16 15 10 7 7 6 4 3 4 5 4 3 3 4 5 6 7 10 16 21 24 26 26 25 21 16 14 13 12 12 11 9 7 5 4 4
22 21 20 20 21 18 16 16 14 10 7 6 5 4 4 5 6 6 5 3 3 4 6 6 8 12 17 21 25 27 25 19 13 11 10 10 10 10 9 7 5 4 3
23 22 22 24 25 23 20 17 13 11 9 8 7 6 5 7 8 8 6 4 3 4 7 9 10 12 15 17 20 22 20 13 7 6 5 5 6 6 6 6 5 4 3
23 25 29 31 30 26 23 19 16 15 15 14 13 10 8 8 9 8 6 5 4 4 6 9 10 11 12 15 17 17 14 8 3 2 1 1 2 2 2 3 3 2 3
25 32 39 40 36 29 25 24 22 20 21 21 19 16 12 9 8 7 6 6 5 4 5 7 9 11 13 16 15 12 10 6 2 1 0 0 0 0 0 1 1 1 1
28 38 46 45 39 33 30 29 27 25 26 25 23 20 17 13 10 8 8 8 7 6 5 6 9 11 14 14 10 9 10 7 1 0 0 0 0 0 0 0 0 0 0
34 41 48 45 40 37 35 33 31 29 29 27 24 20 19 16 13 11 9 9 9 8 7 7 9 12 15 12 8 11 14 9 2 0 0 0 0 0 0 0 0 0 0
39 43 47 45 41 39 37 36 33 31 30 27 24 21 20 18 16 13 11 10 10 10 8 7 10 14 17 16 14 16 16 12 6 2 0 0 0 0 0 0 0 0 0
41 44 46 44 41 40 40 37 33 31 31 28 24 21 19 17 16 14 12 11 11 11 9 9 10 14 19 21 21 20 15 11 8 3 0 0 0 0 0 0 0 0 0
44 46 46 43 42 41 40 36 31 30 32 30 24 21 18 17 16 14 12 13 13 12 13 13 13 14 18 22 22 19 12 8 6 3 0 0 0 0 0 0 0 0 0
50 50 48 45 43 40 36 32 29 29 31 30 26 23 20 18 16 13 12 14 14 14 15 16 15 14 15 17 18 15 11 6 4 2 1 2 1 1 1 0 0 0 0
55 54 51 46 41 35 30 29 29 30 30 30 28 25 21 17 13 10 9 11 12 12 14 16 15 13 10 9 10 9 7 5 3 2 2 3 3 2 2 2 1 0 0
56 56 52 47 39 29 22 22 26 30 31 30 28 25 19 13 9 7 5 5 6 7 10 12 13 10 7 4 3 3 3 2 1 1 1 2 2 2 3 3 2 0 0
55 55 52 47 38 26 15 11 17 27 31 30 27 24 18 11 8 7 5 4 3 2 4 7 9 8 5 2 2 3 2 1 0 0 0 0 0 1 2 2 1 0 0
54 53 51 46 37 26 13 5 10 21 28 27 26 23 18 13 9 8 8 7 5 2 0 2 4 3 2 2 3 3 2 1 0 0 0 0 0 0 1 1 0 0 0
52 51 49 43 34 24 13 4 7 18 24 24 23 20 17 13 8 6 8 10 9 6 3 2 1 1 0 1 1 1 1 0 0 0 0 0 0 0 0 1 0 0 0
50 50 47 41 33 23 12 4 6 17 25 24 20 17 14 11 6 4 7 11 11 9 6 3 1 0 0 0 0 0 0 0 0 0 0 0 0 0 0 1 0 0 0
Wind_Speed
3 3 2 2 2 2 3 2 2 2 2 1 1 1 1 1 2 4 5 11 11 10 10 10 10 10 10 9 9 9 9 8 7 7 7 6 6 6 6 6 5 6 6
3 3 3 2 1 1 2 1 1 1 1 1 0 0 1 1 2 3 5 7 11 10 10 10 10 11 10 10 10 10 10 9 8 8 8 7 7 7 7 7 6 6 6
3 2 2 2 2 2 2 1 1 1 1 1 1 0 1 1 1 2 4 4 6 10 11 11 10 10 11 11 11 10 10 10 9 9 9 8 8 8 7 7 7 7 7
3 2 2 2 2 2 2 2 1 1 0 1 1 1 1 1 2 3 3 4 4 5 9 11 10 10 10 11 11 10 10 10 10 10 10 9 9 9 8 8 7 7 7
2 1 1 2 1 1 1 1 2 1 0 1 1 1 1 1 2 3 3 3 4 4 5 8 10 10 11 11 11 11 10 10 10 10 10 10 10 10 9 9 8 8 8
3 1 2 2 1 1 1 1 1 0 1 1 1 1 1 2 2 2 3 3 3 4 5 6 6 7 11 10 10 10 10 10 10 10 10 10 10 10 10 10 9 9 9
3 2 1 2 1 1 1 1 1 1 1 1 1 1 1 3 3 3 2 2 2 3 3 5 5 4 5 9 10 9 10 10 10 10 10 10 10 9 9 10 10 9 9
3 3 2 2 2 1 1 1 1 1 2 2 1 1 1 1 2 3 3 3 3 2 3 5 5 4 4 4 6 11 10 10 10 9 9 9 9 9 9 10 10 10 10
4 2 2 1 1 1 2 2 2 2 2 2 2 1 1 1 1 1 3 2 2 2 2 2 4 5 5 4 4 9 11 10 10 10 9 9 9 9 9 10 10 10 10
4 4 2 2 1 1 1 2 2 2 2 2 2 2 2 1 1 1 1 1 2 2 3 3 3 3 4 3 4 7 10 10 10 10 10 9 9 9 9 9 10 11 10
4 4 4 3 2 1 1 1 1 1 1 2 2 1 2 2 3 2 2 1 1 2 2 2 2 2 3 3 3 4 8 9 9 9 9 8 8 8 9 9 10 10 10
4 4 4 3 3 2 2 2 2 1 1 2 2 2 2 2 2 2 2 2 2 2 2 1 2 2 2 3 4 5 7 8 8 8 7 7 7 8 8 8 9 10 10
4 4 4 4 3 2 2 1 2 2 1 2 3 2 2 3 2 1 1 2 2 2 2 2 2 1 2 2 2 7 7 7 8 8 7 7 6 6 7 7 8 8 8
4 5 5 4 4 3 3 2 2 2 2 3 3 2 2 3 2 1 1 1 2 2 2 2 1 2 1 2 3 6 5 6 7 7 7 7 6 6 6 6 6 6 7
3 5 5 4 4 3 2 2 2 2 2 3 2 3 2 2 2 2 1 1 2 3 2 2 1 1 1 2 5 4 3 7 7 7 7 7 7 6 6 5 5 5 5
3 3 4 4 4 3 3 2 2 2 2 2 2 2 2 2 2 2 2 2 2 2 2 2 1 1 1 1 4 3 3 7 8 7 7 7 6 6 5 5 4 4 4
3 3 3 3 3 3 3 3 3 3 2 2 2 2 2 2 2 2 2 1 2 2 3 3 1 1 1 1 1 2 3 4 4 8 8 8 7 6 6 5 5 5 5
4 4 3 3 4 3 3 3 3 3 3 3 2 2 2 2 2 3 2 2 2 2 2 4 2 2 2 1 2 2 2 3 3 7 9 9 8 7 6 6 5 5 5
4 4 4 4 4 3 3 3 3 3 3 3 2 2 3 3 2 2 3 3 3 3 2 3 3 2 2 2 2 2 2 1 3 4 7 8 8 7 6 6 6 5 5
5 5 5 4 4 3 3 3 3 3 3 3 3 2 3 2 2 3 3 3 3 3 3 3 3 2 1 2 2 2 2 1 2 2 2 4 6 7 6 6 6 5 5
7 5 5 5 4 4 4 3 3 4 3 3 3 2 2 1 1 2 3 2 3 3 3 2 2 2 2 2 2 2 2 2 2 2 1 2 3 4 4 6 6 6 6
5 5 5 5 5 5 3 3 3 3 3 3 3 2 2 2 2 3 2 2 3 3 3 2 2 2 2 2 2 3 2 2 2 1 1 3 2 3 3 4 6 7 7
4 4 4 4 4 3 4 4 4 3 3 3 3 2 4 2 1 1 1 2 2 3 4 3 2 2 2 2 2 3 2 3 3 3 2 3 2 2 2 3 7 8 8
4 4 3 3 3 3 3 3 4 5 4 3 3 3 2 1 2 1 1 1 1 2 2 2 1 2 2 2 3 4 4 4 4 3 2 2 2 2 2 2 6 7 8
4 4 3 3 3 2 2 2 3 3 3 2 2 1 1 1 0 1 1 1 1 1 1 0 1 1 2 3 3 2 2 2 3 2 1 1 2 2 2 2 3 6 7
3 3 3 2 2 2 2 2 3 2 2 2 1 1 1 2 2 1 1 1 1 1 1 1 1 2 2 3 3 2 2 2 2 2 1 1 2 1 2 1 1 2 3
Wind_Direction
132 138 136 147 172 150 157 169 172 141 143 189 220 151 105 75 111 124 142 166 170 176 183 190 194 193 194 194 196 199 201 203 201 202 203 204 206 206 206 206 209 212 215
125 130 136 161 144 127 130 144 141 135 190 177 190 111 167 154 145 132 152 170 181 186 193 197 200 199 199 201 204 207 208 210 209 208 210 210 211 213 212 212 213 217 219
134 146 147 169 161 154 132 147 136 158 200 180 145 194 205 180 173 163 165 170 184 197 200 200 202 202 201 204 207 210 212 212 211 212 214 215 216 216 216 214 216 219 222
149 161 159 152 147 140 142 157 166 175 168 121 155 231 208 187 203 199 195 188 187 188 198 202 202 203 205 207 209 212 213 214 216 216 216 217 217 216 216 215 218 221 220
150 178 144 125 151 137 157 186 127 133 154 146 211 211 213 212 237 233 223 203 188 178 179 190 201 206 209 212 214 216 216 217 217 217 217 218 219 219 219 219 221 222 222
155 191 156 146 155 124 127 89 90 160 226 218 266 261 220 219 226 234 231 217 185 188 186 179 190 207 213 215 215 217 220 222 221 221 220 220 223 223 222 222 223 226 226
160 180 180 136 170 170 154 139 125 209 244 211 226 265 239 224 223 216 220 228 209 210 192 178 187 192 196 209 214 214 218 223 224 223 223 224 226 226 224 223 223 224 229
169 178 183 180 182 178 170 175 176 222 253 224 201 231 267 254 255 217 201 208 214 215 211 202 191 188 195 186 201 210 219 224 225 224 221 222 224 224 226 227 224 224 228
171 188 169 188 195 195 177 194 198 216 252 268 227 213 224 238 262 246 223 207 195 216 221 212 197 197 198 185 185 205 214 219 223 225 224 224 224 225 227 231 230 228 228
180 178 181 181 220 229 185 215 199 227 235 261 247 229 227 221 211 268 267 216 201 215 230 234 215 195 197 180 184 184 197 208 217 222 225 227 226 225 228 232 233 233 233
183 180 179 181 200 217 248 255 268 256 245 261 266 257 248 235 224 222 248 254 248 231 228 233 230 203 195 173 173 178 185 197 209 216 220 224 226 226 231 234 235 236 238
183 185 181 185 193 205 226 233 249 244 263 290 293 289 270 257 243 227 236 240 241 247 246 246 235 214 186 178 186 167 180 188 199 209 215 220 222 226 233 238 239 238 239
181 184 183 174 184 205 216 219 231 243 252 278 277 281 289 283 276 267 258 253 255 258 248 240 220 217 207 167 155 161 171 180 190 202 208 214 217 224 232 240 245 245 243
180 172 175 171 182 199 210 204 226 226 223 240 252 264 274 279 285 265 248 254 268 268 254 252 240 212 208 149 159 172 175 179 191 200 204 207 212 217 226 237 245 247 248
186 169 170 174 183 196 207 209 220 232 222 232 238 244 255 266 268 261 246 235 245 260 267 256 259 228 186 152 159 186 175 180 188 194 201 206 210 216 221 226 236 240 245
187 172 174 178 185 190 200 216 219 225 236 252 249 263 273 275 279 262 244 234 241 252 264 264 272 279 264 214 171 191 188 174 184 185 194 200 202 210 215 218 223 229 236
192 187 184 184 188 188 188 205 221 211 226 247 256 254 274 302 303 303 297 270 250 234 253 265 250 269 271 257 200 215 198 182 186 190 193 197 200 205 214 221 226 230 234
201 193 186 189 198 187 190 205 221 222 215 228 243 249 258 263 273 297 297 283 271 245 245 265 261 263 259 246 236 247 232 212 199 194 198 197 199 205 213 221 225 226 228
199 197 190 200 205 201 201 215 220 227 230 228 234 249 264 273 272 278 281 280 279 274 255 258 260 244 247 256 254 261 256 259 239 205 195 196 201 203 209 213 215 217 220
198 199 197 203 208 203 209 219 228 239 243 238 236 244 256 258 270 277 271 267 268 276 267 263 266 259 258 269 259 242 262 255 261 244 199 192 194 196 201 203 209 212 215
202 196 200 205 206 212 223 218 224 233 235 242 241 240 255 268 302 283 283 298 289 279 274 266 264 281 290 301 291 287 267 260 258 253 207 204 191 197 204 207 213 212 210
203 200 204 205 213 224 204 212 227 242 235 239 243 237 235 220 214 222 252 282 282 271 274 277 267 266 269 286 304 304 305 296 279 269 266 258 203 207 201 195 199 202 206
200 204 212 210 212 205 209 217 226 233 237 236 235 245 266 261 218 226 256 267 286 271 247 250 270 280 280 287 292 295 292 278 265 258 253 260 236 227 215 187 191 200 205
196 205 213 214 211 215 214 223 233 235 242 236 227 234 241 254 280 276 264 283 299 303 277 243 254 287 302 299 275 260 261 266 264 262 233 253 253 247 235 195 201 202 204
187 199 205 205 203 200 199 211 225 244 243 237 226 234 216 189 351 337 236 242 256 261 277 342 360 316 314 316 309 294 280 274 279 273 247 247 271 273 253 220 208 207 209
191 196 191 193 186 164 170 190 214 249 254 241 207 191 153 146 147 152 229 244 267 295 314 284 303 286 271 272 274 270 287 287 290 288 313 267 264 276 281 262 194 203 217